User: anonymous   Login
Location: Unspecified
(0.0000°N, 0.0000°E)
Time: 00:39:26
(UTC+00:00)
Language:

SCD-1 - Orbit

View from above orbital plane
View from above orbital plane
View from above satellite
View from above satellite

Ground track
Ground track

The orbit data is extracted from the following two-line orbital elements,

1 22490U 93009B   24201.69337412  .00000932  00000-0  20720-3 0  9990
2 22490  24.9681 192.1473 0042242 319.3796 203.1241 14.45336128660460
Epoch (UTC): 19 July 2024 16:38:27
Eccentricity: 0.0042242
inclination: 24.9681°
perigee height: 711 km
apogee height: 771 km
right ascension of ascending node: 192.1473°
argument of perigee: 319.3796°
revolutions per day: 14.45336128
mean anomaly at epoch: 203.1241°
orbit number at epoch: 66046

The dashed part of the orbit path shows where the satellite is in the earth's shadow,  

DLR